Location: Unspecified
(0.0000°N, 0.0000°E)
Time: 18:55:51
(UTC+00:00)

Vanguard 3 - Pass Details

Date: 27 November 2019
Orbit: 508 x 3263 km, 33.3° (Epoch: 06 December)

Event Time Altitude Azimuth Distance (km) Brightness Sun altitude
Rises 13:23:42 0° 304° (NW) 6,545 11.9 58.4°
Reaches altitude 10° 13:30:39 10° 322° (NW) 5,909 11.6 57.1°
Maximum altitude 13:41:46 18° 358° (N) 5,544 11.4 55.0°
Drops below altitude 10° 13:53:08 10° 35° (NE) 6,044 11.3 52.8°
Sets 14:00:26 0° 53° (NE) 6,745 11.5 51.3°
